Hourly Weather Kozlowo

Today, 23 October, Friday

Time Temperature Precipitation Wind Pressure Humidity
00:00 +12°C° 0 mm 3 mps 747 mmHg 86%
01:00 +12°C° 0 mm 3 mps 747 mmHg 86%
02:00 +11°C° 0 mm 3 mps 746 mmHg 86%
03:00 +11°C° 0 mm 3 mps 746 mmHg 85%
04:00 +11°C° 0 mm 4 mps 746 mmHg 85%
05:00 +11°C° 0 mm 4 mps 745 mmHg 84%
06:00 +11°C° 0 mm 4 mps 745 mmHg 84%
07:00 +11°C° 0 mm 4 mps 745 mmHg 83%
08:00 +11°C° 0 mm 4 mps 745 mmHg 81%
09:00 +12°C° 0 mm 4 mps 745 mmHg 78%
10:00 +12°C° 0 mm 5 mps 745 mmHg 76%
11:00 +13°C° 0 mm 5 mps 745 mmHg 73%
12:00 +14°C° 0 mm 5 mps 745 mmHg 72%
13:00 +15°C° 0 mm 5 mps 745 mmHg 70%
14:00 +15°C° 0 mm 4 mps 745 mmHg 70%
15:00 +15°C° 0 mm 4 mps 745 mmHg 74%
16:00 +14°C° 0 mm 4 mps 745 mmHg 77%
17:00 +13°C° 0 mm 3 mps 744 mmHg 81%
18:00 +13°C° 0 mm 3 mps 745 mmHg 83%
19:00 +13°C° 0 mm 3 mps 745 mmHg 86%
20:00 +12°C° 0 mm 3 mps 745 mmHg 89%
21:00 +12°C° 0 mm 3 mps 745 mmHg 91%
22:00 +13°C° 0 mm 2 mps 745 mmHg 93%
23:00 +12°C° 0 mm 2 mps 744 mmHg 95%

Tomorrow, 24 October, Saturday

Time Temperature Precipitation Wind Pressure Humidity
00:00 +12°C° 0.3 mm 2 mps 744 mmHg 95%
01:00 +13°C° 0.3 mm 2 mps 744 mmHg 95%
02:00 +13°C° 0.3 mm 2 mps 744 mmHg 95%
03:00 +13°C° 0.1 mm 2 mps 744 mmHg 92%
04:00 +12°C° 0.1 mm 3 mps 743 mmHg 89%
05:00 +12°C° 0.1 mm 3 mps 743 mmHg 86%
06:00 +11°C° 0.4 mm 3 mps 743 mmHg 88%
07:00 +11°C° 0.4 mm 4 mps 743 mmHg 89%
08:00 +11°C° 0.4 mm 4 mps 743 mmHg 91%
09:00 +12°C° 0.2 mm 4 mps 743 mmHg 90%
10:00 +12°C° 0.2 mm 4 mps 743 mmHg 89%
11:00 +12°C° 0.2 mm 4 mps 744 mmHg 88%
12:00 +13°C° 0 mm 4 mps 744 mmHg 81%
13:00 +14°C° 0 mm 4 mps 745 mmHg 74%
14:00 +16°C° 0 mm 3 mps 745 mmHg 67%
15:00 +14°C° 0 mm 3 mps 745 mmHg 72%
16:00 +13°C° 0 mm 3 mps 745 mmHg 76%
17:00 +12°C° 0 mm 3 mps 745 mmHg 81%
18:00 +12°C° 0 mm 3 mps 746 mmHg 84%
19:00 +11°C° 0 mm 3 mps 746 mmHg 87%
20:00 +10°C° 0 mm 3 mps 746 mmHg 90%
21:00 +10°C° 0 mm 3 mps 747 mmHg 91%
22:00 +10°C° 0 mm 3 mps 747 mmHg 93%
23:00 +10°C° 0 mm 3 mps 747 mmHg 94%

Day after tomorrow, 25 October, Sunday

Time Temperature Precipitation Wind Pressure Humidity
00:00 +10°C° 0 mm 3 mps 747 mmHg 94%
01:00 +9°C° 0 mm 3 mps 747 mmHg 95%
02:00 +9°C° 0 mm 3 mps 747 mmHg 95%
03:00 +9°C° 0 mm 2 mps 747 mmHg 95%
04:00 +9°C° 0 mm 2 mps 747 mmHg 95%
05:00 +9°C° 0 mm 2 mps 747 mmHg 95%
06:00 +8°C° 0 mm 2 mps 747 mmHg 95%
07:00 +8°C° 0 mm 2 mps 748 mmHg 96%
08:00 +8°C° 0 mm 2 mps 748 mmHg 96%
09:00 +10°C° 0 mm 2 mps 748 mmHg 90%
10:00 +13°C° 0 mm 2 mps 748 mmHg 84%
11:00 +14°C° 0 mm 2 mps 748 mmHg 78%
12:00 +15°C° 0 mm 2 mps 748 mmHg 74%
13:00 +16°C° 0 mm 2 mps 748 mmHg 70%
14:00 +16°C° 0 mm 2 mps 748 mmHg 66%
15:00 +15°C° 0 mm 2 mps 748 mmHg 70%
16:00 +14°C° 0 mm 2 mps 747 mmHg 75%
17:00 +14°C° 0 mm 2 mps 747 mmHg 79%
18:00 +13°C° 0 mm 2 mps 747 mmHg 82%
19:00 +11°C° 0 mm 3 mps 747 mmHg 84%
20:00 +10°C° 0 mm 3 mps 747 mmHg 87%
21:00 +10°C° 0 mm 3 mps 747 mmHg 88%
22:00 +10°C° 0 mm 3 mps 747 mmHg 89%
23:00 +9°C° 0 mm 3 mps 747 mmHg 90%

, 26 October, Monday

Time Temperature Precipitation Wind Pressure Humidity
00:00 +9°C° 0 mm 3 mps 747 mmHg 90%
01:00 +9°C° 0 mm 3 mps 747 mmHg 90%
02:00 +7°C° 0 mm 4 mps 746 mmHg 89%
03:00 +8°C° 0 mm 4 mps 746 mmHg 89%
04:00 +8°C° 0 mm 4 mps 746 mmHg 89%
05:00 +8°C° 0 mm 5 mps 745 mmHg 88%
06:00 +8°C° 0 mm 5 mps 745 mmHg 88%
07:00 +8°C° 0 mm 5 mps 745 mmHg 89%
08:00 +9°C° 0 mm 6 mps 745 mmHg 89%
09:00 +10°C° 0 mm 6 mps 745 mmHg 87%
10:00 +10°C° 0 mm 6 mps 744 mmHg 85%
11:00 +11°C° 0 mm 6 mps 744 mmHg 83%
12:00 +14°C° 0 mm 6 mps 744 mmHg 78%
13:00 +15°C° 0 mm 6 mps 744 mmHg 73%
14:00 +16°C° 0 mm 6 mps 744 mmHg 69%
15:00 +15°C° 0 mm 6 mps 744 mmHg 72%
16:00 +15°C° 0 mm 5 mps 743 mmHg 75%
17:00 +14°C° 0 mm 5 mps 743 mmHg 77%
18:00 +14°C° 0 mm 5 mps 743 mmHg 78%
19:00 +14°C° 0 mm 5 mps 743 mmHg 79%
20:00 +14°C° 0 mm 5 mps 743 mmHg 80%
21:00 +13°C° 0 mm 5 mps 744 mmHg 83%
22:00 +13°C° 0 mm 5 mps 744 mmHg 87%
23:00 +12°C° 0 mm 5 mps 744 mmHg 90%

26 October, Monday

Time Temperature Precipitation Wind Pressure Humidity
00:00 +9°C° 0 mm 3 mps 747 mmHg 90%
01:00 +9°C° 0 mm 3 mps 747 mmHg 90%
02:00 +7°C° 0 mm 4 mps 746 mmHg 89%
03:00 +8°C° 0 mm 4 mps 746 mmHg 89%
04:00 +8°C° 0 mm 4 mps 746 mmHg 89%
05:00 +8°C° 0 mm 5 mps 745 mmHg 88%
06:00 +8°C° 0 mm 5 mps 745 mmHg 88%
07:00 +8°C° 0 mm 5 mps 745 mmHg 89%
08:00 +9°C° 0 mm 6 mps 745 mmHg 89%
09:00 +10°C° 0 mm 6 mps 745 mmHg 87%
10:00 +10°C° 0 mm 6 mps 744 mmHg 85%
11:00 +11°C° 0 mm 6 mps 744 mmHg 83%
12:00 +14°C° 0 mm 6 mps 744 mmHg 78%
13:00 +15°C° 0 mm 6 mps 744 mmHg 73%
14:00 +16°C° 0 mm 6 mps 744 mmHg 69%
15:00 +15°C° 0 mm 6 mps 744 mmHg 72%
16:00 +15°C° 0 mm 5 mps 743 mmHg 75%
17:00 +14°C° 0 mm 5 mps 743 mmHg 77%
18:00 +14°C° 0 mm 5 mps 743 mmHg 78%
19:00 +14°C° 0 mm 5 mps 743 mmHg 79%
20:00 +14°C° 0 mm 5 mps 743 mmHg 80%
21:00 +13°C° 0 mm 5 mps 744 mmHg 83%
22:00 +13°C° 0 mm 5 mps 744 mmHg 87%
23:00 +12°C° 0 mm 5 mps 744 mmHg 90%

27 October, Tuesday

Time Temperature Precipitation Wind Pressure Humidity
00:00 +12°C° 0 mm 5 mps 744 mmHg 88%
01:00 +12°C° 0 mm 5 mps 744 mmHg 87%
02:00 +12°C° 0 mm 5 mps 744 mmHg 85%
03:00 +12°C° 0 mm 5 mps 744 mmHg 85%
04:00 +12°C° 0 mm 5 mps 744 mmHg 85%
05:00 +12°C° 0 mm 5 mps 744 mmHg 84%
06:00 +12°C° 0 mm 5 mps 744 mmHg 84%
07:00 +12°C° 0 mm 5 mps 744 mmHg 84%
08:00 +12°C° 0 mm 5 mps 744 mmHg 84%
09:00 +13°C° 0 mm 5 mps 744 mmHg 81%
10:00 +13°C° 0 mm 5 mps 745 mmHg 79%
11:00 +14°C° 0 mm 5 mps 745 mmHg 76%
12:00 +15°C° 0 mm 5 mps 745 mmHg 73%
13:00 +16°C° 0 mm 5 mps 745 mmHg 69%
14:00 +18°C° 0 mm 4 mps 745 mmHg 66%
15:00 +17°C° 0 mm 4 mps 745 mmHg 69%
16:00 +16°C° 0 mm 3 mps 745 mmHg 73%
17:00 +14°C° 0 mm 3 mps 745 mmHg 76%
18:00 +14°C° 0 mm 3 mps 745 mmHg 79%
19:00 +13°C° 0 mm 3 mps 745 mmHg 82%
20:00 +12°C° 0 mm 3 mps 745 mmHg 84%
21:00 +12°C° 0 mm 3 mps 746 mmHg 87%
22:00 +12°C° 0 mm 3 mps 746 mmHg 90%
23:00 +11°C° 0 mm 3 mps 746 mmHg 93%

28 October, Wednesday

Time Temperature Precipitation Wind Pressure Humidity
00:00 +11°C° 0 mm 3 mps 746 mmHg 94%
01:00 +11°C° 0 mm 3 mps 746 mmHg 94%
02:00 +12°C° 0 mm 2 mps 746 mmHg 95%
03:00 +11°C° 0 mm 3 mps 746 mmHg 95%
04:00 +10°C° 0 mm 3 mps 746 mmHg 95%
05:00 +10°C° 0 mm 3 mps 746 mmHg 96%
06:00 +10°C° 0 mm 3 mps 746 mmHg 96%
07:00 +10°C° 0 mm 3 mps 746 mmHg 96%
08:00 +10°C° 0 mm 3 mps 746 mmHg 96%
09:00 +11°C° 0 mm 3 mps 746 mmHg 91%
10:00 +12°C° 0 mm 3 mps 747 mmHg 86%
11:00 +14°C° 0 mm 3 mps 747 mmHg 81%
12:00 +16°C° 0 mm 3 mps 746 mmHg 78%
13:00 +16°C° 0 mm 3 mps 746 mmHg 75%
14:00 +17°C° 0 mm 3 mps 746 mmHg 72%
15:00 +17°C° 0 mm 3 mps 746 mmHg 76%
16:00 +16°C° 0 mm 3 mps 746 mmHg 80%
17:00 +15°C° 0 mm 2 mps 746 mmHg 83%
18:00 +14°C° 0 mm 3 mps 746 mmHg 85%
19:00 +13°C° 0 mm 3 mps 746 mmHg 87%
20:00 +13°C° 0 mm 3 mps 746 mmHg 88%
21:00 +13°C° 0 mm 3 mps 746 mmHg 88%
22:00 +13°C° 0 mm 3 mps 746 mmHg 88%
23:00 +12°C° 0 mm 3 mps 747 mmHg 88%
Show more